This demonstration page uses our WeatherBlox Daily Observations layout. Learn more.

Left ArrowRight Arrow

30.21309, -93.2044

Hourly Observations for June 11, 2019

Temp ( °F °C ) Dew Point ( °F °C ) Humidity (%) Winds ( mph kmh ) Pressure ( in mb ) Visibility ( mi km ) Precip ( " mm )
12:15 am 00:15 Clear 77 25.1 70 21.2 79 79 NNE 9 15 30.09 1019 10 16 0.00 0.00
12:35 am 00:35 Clear 77 25 70 20.9 78 78 NNE 9 15 30.09 1019 10 16 0.00 0.00
12:55 am 00:55 Clear 77 24.9 68 20.1 75 75 NNE 10 17 30.09 1019 10 16 0.00 0.00
1:15 am 01:15 Clear 76 24.5 68 20.2 77 77 NNE 12 19 30.09 1019 10 16 0.00 0.00
1:35 am 01:35 Clear 76 24.2 68 20 77 77 NNE 14 22 30.09 1019 10 16 0.00 0.00
1:55 am 01:55 Clear 75 24 67 19.5 76 76 NNE 10 17 30.09 1019 10 16 0.00 0.00
2:15 am 02:15 Clear 75 23.8 66 19 75 75 NNE 8 13 30.09 1019 10 16 0.00 0.00
2:35 am 02:35 Clear 74 23.5 65 18.5 74 74 NE 8 13 30.08 1019 10 16 0.00 0.00
2:55 am 02:55 Clear 73 22.9 66 18.8 78 78 NNE 14 22 30.09 1019 10 16 0.00 0.00
3:15 am 03:15 Clear 73 22.7 65 18.2 76 76 NNE 13 20 30.08 1019 10 16 0.00 0.00
3:35 am 03:35 Clear 73 22.5 64 18 76 76 NNE 10 17 30.09 1019 10 16 0.00 0.00
3:55 am 03:55 Clear 72 22.1 64 17.5 75 75 NNE 9 15 30.09 1019 10 16 0.00 0.00
4:15 am 04:15 Clear 71 21.8 62 16.8 73 73 NNE 8 13 30.08 1019 10 16 0.00 0.00
4:35 am 04:35 Clear 71 21.9 61 16.1 70 70 NNE 8 13 30.08 1019 10 16 0.00 0.00
4:55 am 04:55 Clear 71 21.6 60 15.8 70 70 NNE 8 13 30.08 1019 10 16 0.00 0.00
5:15 am 05:15 Clear 70 21.3 60 15.5 70 70 NNE 6 9 30.09 1019 10 16 0.00 0.00
5:35 am 05:35 Clear 70 21.1 60 15.5 71 71 NNE 7 11 30.08 1019 10 16 0.00 0.00
6:00 am 06:00 Mostly Clear 70 21 59 15 69 69 NNE 7 11 30.09 1019 10 16 0.00 0.00
6:55 am 06:55 Mostly Sunny 68 20 59 15 73 73 NNE 8 13 30.09 1019 10 16 0.00 0.00
7:55 am 07:55 Mostly Sunny 72 22 59 15 65 65 N 8 13 30.10 1019 10 16 0.00 0.00
8:55 am 08:55 Mostly Cloudy 72 22 59 15 65 65 NNE 12 19 30.10 1019 10 16 0.00 0.00
9:47 am 09:47 Mostly Cloudy 75 24 61 16 61 61 NNE 12 19 30.10 1019 10 16 0.00 0.00
10:50 am 10:50 Mostly Cloudy 77 25 63 17 61 61 NNE 10 17 30.09 1019 10 16 0.00 0.00
11:50 am 11:50 Mostly Cloudy 81 27 64 18 58 58 NNE 13 20 30.07 1018 10 16 0.00 0.00
12:45 pm 12:45 Mostly Cloudy 79 26 64 18 61 61 NNE 8 13 30.06 1018 10 16 0.00 0.00
1:45 pm 13:45 Mostly Cloudy 81 27 66 19 62 62 NNE 8 13 30.04 1017 10 16 0.00 0.00
2:45 pm 14:45 Mostly Cloudy 84 29 66 19 55 55 NNE 9 15 30.02 1017 10 16 0.00 0.00
3:45 pm 15:45 Mostly Cloudy 84 29 66 19 55 55 NNW 8 13 30.00 1016 10 16 0.00 0.00
4:45 pm 16:45 Mostly Cloudy 84 29 64 18 51 51 NNE 6 9 29.99 1016 10 16 0.00 0.00
5:50 pm 17:50 Mostly Cloudy 84 29 64 18 51 51 N 7 11 29.97 1015 10 16 0.00 0.00
6:55 pm 18:55 Partly Cloudy 82 28 64 18 55 55 NNE 8 13 29.97 1015 10 16 0.00 0.00
9:45 pm 21:45 Mostly Clear 73 23 63 17 69 69 NNE 12 19 29.99 1016 10 16 0.00 0.00
10:15 pm 22:15 Clear 73 22.5 63 17 71 71 NE 5 7 30.00 1016 10 16 0.00 0.00
10:35 pm 22:35 Clear 73 23 62 16.8 68 68 NE 3 6 30.00 1016 7 11 0.00 0.00
10:55 pm 22:55 Clear 73 22.8 63 17 70 70 ENE 5 7 29.99 1016 10 16 0.00 0.00
11:15 pm 23:15 Clear 73 22.7 63 17.1 71 71 ENE 3 6 29.99 1016 10 16 0.00 0.00
11:35 pm 23:35 Clear 73 22.6 63 17.4 73 73 NE 3 6 29.99 1016 10 16 0.00 0.00
11:55 pm 23:55 Clear 73 22.5 63 17.2 72 72 ENE 3 6 29.99 1016 10 16 0.00 0.00

Powered by AerisWeather